Weather in Rassvet

Russia / Tomsk District     56°37′30″N   85°12′01″E
temp.,
°C
wind,
m/s
gust,
m/s
humid.,
%
clouds,
%
prec.,
mm/h
press.,
hPa
HPBL,
m
5 march, fri
fri501:00−4ssw71494100 2.9 1012934
04:00−5ssw61488100 0.1 1011685
07:00−7s61488100 0.1 1011573
10:00−6ssw61585100 0.5 1010664
13:00−5ssw71491100 0.7 1008878
16:00−4sw71292100 1.1 1006927
19:00−4sw71588100 1.4 10101223
22:00−6sw61489100 0.2 10111000
6 march, sat
sat601:00−5sw71593100 1.1 10121291
04:00−5sw61392100 0.6 1011975
07:00−5sw61392100 0.9 1012916
10:00−5ssw71394100 1.0 1010915
13:00−5ssw71392100 2.8 10091166
16:00−5sw71393100 1.2 10081100
19:00−5sw71393100 2.3 10071068
22:00−4ssw71592100 0.5 10051063
7 march, sun
sun701:00−3sw61492100 1.2 10061362
04:00−7wsw5138769 0.4 1006646
07:00−9wsw5138984 0.4 1009599
10:00−10wsw5128853 0.0 1011623
13:00−8wsw6118426 0.0 1014940
16:00−7wsw61183100 0.1 10151356
19:00−9wsw41286100 0.3 1017844
22:00−11wsw41193100 0.1 1020587
8 march, mon
mon801:00−15sw249881 0.1 102388
04:00−16s2599100 0.0 102292
07:00−14sse3794100 0.0 1021163
10:00−9sse5137699 0.0 1017458
13:00−4s61489100 0.0 1012685
16:00−1s61487100 0.0 1007895
19:00−1ssw61583100 0.1 1003943
22:00−2sw81685100 0.0 10011118
9 march, tue
tue901:00−2sw81791100 0.4 10041633
04:00−10wsw71491100 0.3 1009885
07:00−11wsw61392100 0.4 1014864
10:00−11wsw61291100 0.2 1017784
13:00−10wsw61089100 0.4 1020826
16:00−9sw5987100 0.1 1021902
19:00−11ssw31092100 0.1 1022408
22:00−13ssw4119262 0.0 1021339